SL-24 DEB, 39450

Orbit data source: Space-Track

SL-24 DEB, 39450 is space debris in SSO originally from a launch on Thu, 21 Nov 2013 UTC launched from the Orenburg, Russia (OREN). Debris objects in space refer to the collection of defunct objects orbiting the Earth. Examples of debris include non-operational satellites, rocket bodies, and fragments generated from explosions, collisions, or faulty payload assembly.

Loading next visibility...
Identifier
39450, 2013-066AL
Orbit
SSO
Country
Flag of CISCIS
Related business
Manufacturer
Yuzhnoe
Mission
Spacecraft
Bus & Motor
Unknown
Mass
Unknown
Launch date (UTC)
2013-11-21 (12 years ago)
Launch vehicle
Unknown
Launch site
Orenburg, Russia (OREN)
Object type
Payload
Rocket body
Debris
Shape & HBR
Unknown shape, 2.6 m
Radar Cross Section
Large (>1 m²)

Expand to show TLE details & history
Last TLE update: 10 hours ago

TLE from 10 hours ago
0 SL-24 DEB
1 39450U 13066AL  25300.43842469  .00015741  00000-0  68876-3 0  9993
2 39450  97.3985 304.1397 0008010  39.6018 320.5802 15.22110345652105
Epoch: 2025-10-27T10:31Z
TLE epoch observation values (Epoch: 2025-10-27T10:31:19.893Z)
Latitude
-0.00001°
Longitude
110.26655°
Altitude
498.315 km
Speed
7.618 km/s
True Right ascension
20h 16m 33s
True Declination
0° 00' 00"
Sunlit
Object was in daylight at epoch
Visualization orbit readout
Latitude
Unknown
Longitude
Unknown
Altitude
Unknown
Speed
Unknown
Apparent Right ascension
Unknown
Apparent Declination
Unknown
Sunlit
N/A
Visualization observer readout
Local Sidereal Time
15:45:08
Azimuth
Unknown
Elevation
Unknown
Doppler factor
Unknown
Orbital elements
Apogee altitude
501.945 km
Perigee altitude
490.932 km
Semi-major axis
6,874.576 km
Eccentricity
0.0008
Inclination
97.3985°
RAAN
304.1397°
Arg. of periapsis
39.6018°
True anomaly
320.52187°
Mean anomaly
320.5802°
Eccentric anomaly
320.55104°
Mean motion
3.8078 °/min
Orbital period
94.54 mins
BSTAR
0.00068876
Loading maneuver chart data...
Computing Atmospheric mass density...
Loading historical data...
Loading historical data...
Loading historical data...
Loading historical data...
Loading historical data...
Loading historical data...
Loading historical data...

Documentation

Showing up to 5 results
|